User: anonymous   Login
Location: University of Redlands
(34.0627°N, 117.1632°W)
Time: 11:52:07
(UTC-08:00)
Language:

ISS - Orbit

View from above orbital plane
View from above orbital plane
View from above satellite
View from above satellite

Ground track
Ground track

The orbit data is extracted from the following two-line orbital elements,

1 25544U 98067A   18057.34537198  .00016717  00000-0  10270-3 0  9031
2 25544  51.6399 211.2932 0002593 130.2258 229.9121 15.54133048 21277
Epoch (UTC): 26 February 2018 08:17:20
Eccentricity: 0.0002593
inclination: 51.6399°
perigee height: 403 km
apogee height: 406 km
right ascension of ascending node: 211.2932°
argument of perigee: 130.2258°
revolutions per day: 15.54133048
mean anomaly at epoch: 229.9121°
orbit number at epoch: 2127

The dashed part of the orbit path shows where the satellite is in the earth's shadow,  

DLR